Theta_e
308 308 308 309 309 309 309 309 310 310 311 312 314 315 315 315 315 315 315 314 313 312 312 313 314 314 316 318 314 312 316 317 317 318 318 317 317 315 314 315 315 313 313 308 308
309 309 309 309 309 309 310 310 311 312 312 314 316 316 316 316 315 314 314 314 313 312 313 314 315 314 317 318 317 316 316 315 314 316 318 317 316 316 316 316 315 313 309 308 308
309 309 309 309 309 310 310 311 312 314 314 316 317 317 316 315 317 314 314 313 312 312 312 313 314 315 316 317 318 315 315 312 314 315 316 317 316 315 316 316 315 314 310 307 307
311 310 309 309 310 311 311 312 313 314 315 317 318 318 316 314 320 312 312 312 312 313 314 314 315 316 316 316 317 317 315 314 316 315 315 317 315 315 315 314 309 308 306 306 306
312 312 311 311 311 312 312 313 315 316 317 318 319 318 315 316 318 315 312 311 311 313 314 315 315 316 316 315 316 318 316 315 315 315 314 312 315 315 312 308 306 306 305 305 305
313 312 313 313 313 313 313 314 316 318 318 319 319 318 313 319 314 315 314 311 310 313 313 314 314 314 315 315 315 314 314 314 314 314 313 314 313 313 308 307 307 306 305 304 303
313 313 313 313 314 314 314 315 316 319 319 319 318 315 315 319 315 316 314 312 311 311 313 312 313 314 315 315 312 313 315 315 314 312 313 312 313 313 308 307 307 306 304 303 302
314 314 314 314 314 314 314 316 317 319 320 319 314 313 319 313 313 315 314 312 312 311 311 312 312 314 315 312 312 315 314 319 314 312 311 313 319 310 307 308 308 306 304 303 301
315 314 315 315 315 315 315 316 318 320 318 317 316 314 319 310 313 314 313 313 311 311 311 311 312 314 313 316 317 315 321 317 316 312 313 314 318 310 306 308 307 305 303 302 301
315 316 316 316 316 316 315 317 319 319 316 315 315 317 314 312 309 312 312 312 312 312 313 314 313 315 313 317 321 321 317 315 317 314 313 315 316 309 307 307 307 304 303 302 301
317 317 317 317 317 316 316 319 319 320 317 319 319 318 312 308 309 309 310 310 310 313 316 312 316 317 318 317 316 316 315 317 314 311 314 316 316 315 307 307 306 304 303 302 300
318 318 318 318 317 316 317 320 318 316 321 318 317 314 309 308 310 309 310 313 312 314 311 312 316 317 313 313 313 313 316 317 313 311 312 315 315 314 307 307 306 304 303 302 300
319 319 318 318 317 316 318 319 318 315 322 320 318 319 315 309 313 311 310 311 312 312 312 316 316 312 311 311 312 313 315 316 316 313 311 312 317 313 306 304 303 302 302 301 301
321 320 319 318 317 317 318 316 318 314 321 321 319 320 310 311 314 309 310 311 310 313 311 313 311 310 311 312 312 315 311 312 312 314 320 310 323 315 309 306 303 302 301 301 299
322 322 320 318 318 317 317 317 318 316 326 319 316 310 310 318 313 309 307 310 313 312 313 316 312 313 314 314 311 317 311 312 313 315 315 314 317 319 307 309 306 303 302 301 299
321 321 321 318 317 318 317 318 318 322 325 319 312 313 315 311 309 307 309 309 310 312 311 315 309 312 314 310 311 309 311 310 310 313 319 318 317 319 312 311 308 304 302 300 298
320 320 320 318 318 318 319 317 323 325 318 317 316 314 318 313 310 310 311 312 317 319 320 316 313 309 308 312 308 311 315 321 321 320 321 310 314 318 311 307 307 304 302 300 297
316 320 320 319 318 318 318 322 321 323 322 311 310 314 320 312 312 310 312 316 315 316 319 323 323 312 310 317 315 312 318 324 327 322 319 310 316 315 308 305 304 305 302 300 297
316 313 318 318 317 318 321 322 323 322 320 314 311 316 318 311 314 312 314 317 316 314 322 321 322 309 308 308 313 312 314 314 314 309 319 317 313 311 306 305 303 303 301 300 298
316 314 316 318 317 315 322 320 320 319 318 316 319 317 319 315 315 314 314 314 315 313 314 316 323 309 308 309 310 311 312 316 316 324 325 316 314 316 309 308 303 302 301 300 298
316 315 313 316 316 318 321 319 319 318 315 316 319 319 317 314 316 314 317 313 314 312 314 313 316 314 309 311 314 312 313 313 316 317 322 320 314 309 311 310 305 304 302 301 298
315 315 314 318 319 320 321 319 317 318 318 319 316 319 316 312 312 314 316 316 310 312 314 315 316 318 313 309 306 313 314 314 320 315 312 313 317 306 307 307 307 305 303 302 299
314 313 315 318 322 321 319 320 319 318 319 320 320 317 316 314 315 314 314 309 309 312 315 314 318 324 318 311 308 311 312 313 313 315 319 321 320 305 305 305 305 305 303 301 300
315 315 313 311 315 320 320 321 321 318 318 318 320 317 314 317 314 320 314 309 309 311 313 314 318 322 326 320 315 314 313 312 314 320 319 317 315 308 308 307 305 304 303 301 300
312 314 314 315 315 313 319 320 321 321 318 317 318 319 321 322 320 319 319 310 309 310 311 314 319 318 319 310 313 315 314 313 314 315 319 318 313 310 309 308 306 305 304 302 301
312 311 306 312 313 316 316 320 320 320 316 319 319 319 318 321 321 322 319 315 316 308 310 310 319 317 317 309 308 311 314 313 313 314 314 314 313 310 308 306 306 304 302 302 301
298 299 307 312 313 315 316 315 317 317 315 316 316 318 318 317 315 307 306 310 311 311 311 312 316 315 320 313 307 312 312 312 312 312 314 315 314 306 305 306 306 305 302 302 301
Wind_Speed
1 1 1 2 2 2 3 4 5 6 7 8 9 10 11 12 12 5 2 2 2 4 3 5 3 3 3 3 3 1 2 4 6 6 5 2 4 2 1 2 2 3 5 6 9
2 3 3 3 4 4 4 5 5 6 7 8 9 10 11 12 8 2 2 2 3 5 3 4 3 2 3 2 2 1 2 3 2 3 6 3 1 1 3 1 3 5 9 9 8
6 5 5 5 5 5 5 5 6 7 7 8 9 10 10 10 3 1 2 4 5 5 5 4 5 2 2 0 1 1 1 3 3 4 2 3 2 1 2 2 4 3 5 8 10
7 7 7 6 6 5 5 6 6 8 8 9 10 10 9 4 4 2 3 5 6 6 6 4 2 2 1 2 1 2 1 2 2 4 3 2 2 2 2 4 5 8 7 7 10
9 8 7 7 6 5 6 6 6 7 8 9 9 8 3 2 3 3 4 5 8 7 3 2 2 3 3 3 2 3 2 3 2 5 4 1 4 0 2 6 8 8 8 8 8
11 9 8 7 6 6 6 7 7 7 7 9 8 5 0 5 3 4 5 6 6 7 4 3 2 2 4 2 3 2 2 4 4 3 4 5 2 5 4 6 6 5 7 7 8
13 11 9 8 7 7 7 7 7 7 8 8 6 1 2 8 4 6 6 5 6 6 4 3 6 2 5 4 1 1 4 6 4 2 4 6 4 6 4 5 4 4 5 6 8
15 12 10 9 8 8 8 8 8 8 7 4 1 1 5 4 7 7 7 6 6 6 5 7 5 6 1 5 2 2 3 4 3 2 2 6 4 7 1 7 2 2 3 4 7
15 14 12 11 9 8 8 8 8 7 5 3 1 2 5 2 4 9 10 7 8 7 6 9 4 3 4 4 3 2 6 6 2 1 2 6 1 6 3 5 3 2 3 4 5
18 14 13 11 9 9 7 7 7 7 3 2 2 3 5 4 5 8 9 12 4 8 5 2 2 4 3 8 9 7 6 5 6 3 3 6 9 7 2 2 3 4 4 5 5
20 16 14 12 11 9 6 2 3 3 5 8 5 1 5 6 8 6 8 7 4 3 8 3 8 13 19 17 5 2 4 7 3 2 4 11 13 8 4 5 6 6 6 6 6
22 18 16 12 11 9 5 4 3 2 7 15 6 6 4 9 4 6 14 9 7 8 8 4 14 15 2 9 9 7 9 13 4 3 4 9 14 8 6 4 5 7 7 7 8
25 21 18 14 11 11 12 10 2 1 5 5 7 9 6 11 8 15 17 7 6 10 17 13 2 9 9 8 11 12 14 11 9 3 4 5 14 11 4 5 7 7 7 7 9
29 24 21 17 10 11 9 18 6 2 6 7 7 6 7 8 7 3 19 5 6 14 9 9 4 7 10 12 12 15 13 9 7 5 9 3 6 5 8 10 11 11 11 10 9
24 29 27 29 10 12 8 16 18 2 8 5 4 2 2 9 10 2 6 3 10 9 8 6 10 11 11 8 13 6 6 10 7 11 5 8 6 3 6 12 13 15 14 12 10
24 25 33 34 16 11 13 19 12 4 13 4 3 6 8 3 2 4 6 4 3 6 2 5 1 5 5 3 8 14 9 5 3 3 8 15 13 8 7 10 17 18 17 16 14
25 23 35 33 15 21 23 13 4 7 3 8 5 8 8 6 4 6 13 13 11 9 15 6 8 4 3 5 3 6 10 4 5 6 7 3 9 12 6 8 16 24 21 18 15
26 24 32 37 29 32 25 10 8 20 26 6 6 7 11 10 5 7 10 12 18 7 4 11 8 15 13 18 10 16 18 7 7 6 3 2 8 5 2 6 2 17 19 19 17
27 21 19 34 36 40 12 14 16 13 17 13 7 6 9 6 6 9 12 10 14 17 13 10 7 3 6 4 12 10 11 4 5 1 2 6 5 6 6 6 7 15 19 20 18
21 11 13 29 41 30 13 17 11 13 9 16 21 16 16 13 13 15 14 9 8 19 6 5 4 1 4 4 1 6 12 5 5 5 6 4 5 8 10 14 10 15 19 19 18
19 3 7 30 41 10 13 10 15 9 12 14 19 13 11 12 17 12 12 5 14 13 17 4 3 4 4 12 17 6 7 5 3 4 4 3 5 5 10 17 19 19 21 22 20
9 6 9 35 11 4 14 15 12 11 12 13 4 17 13 14 14 17 17 14 17 14 16 11 2 7 14 0 2 11 8 15 7 6 4 2 5 4 4 10 16 17 18 20 19
4 7 10 24 11 10 6 17 17 14 16 11 13 10 12 12 8 15 13 6 13 18 18 13 5 3 3 5 4 9 11 13 6 2 11 7 4 4 2 6 12 14 17 18 19
4 5 4 3 5 7 15 15 20 11 14 18 12 11 5 15 11 8 12 7 10 14 7 18 10 15 18 6 12 12 17 15 13 9 12 17 8 8 10 11 12 13 16 18 19
5 5 5 4 14 19 15 12 20 18 13 16 9 22 21 13 15 22 18 4 4 7 5 14 14 21 25 7 7 8 20 22 23 29 17 17 17 17 17 16 17 17 16 17 19
4 3 1 4 6 10 17 8 17 16 10 10 18 17 16 17 21 15 18 12 13 8 10 6 12 20 21 10 9 8 17 27 29 25 22 11 14 13 14 7 11 15 16 17 17
3 2 1 6 10 10 13 17 14 18 7 10 12 13 13 22 13 1 2 1 2 11 16 13 15 8 21 13 4 7 27 21 21 18 22 19 15 9 7 13 14 14 16 17 16
Wind_Direction
356 342 351 339 334 339 342 342 341 338 343 349 347 340 335 331 327 320 269 171 168 175 154 143 96 77 67 77 48 245 202 186 180 177 150 145 184 117 2 259 51 42 53 356 344
268 286 301 304 309 318 322 323 332 333 339 344 342 338 335 331 325 260 201 168 164 159 157 165 124 79 89 84 42 258 241 177 151 153 152 149 253 38 225 135 146 120 72 37 36
264 273 282 294 301 307 310 317 327 327 334 340 340 337 335 332 284 85 162 155 160 151 147 123 97 55 99 54 68 148 264 155 161 164 174 160 256 180 262 173 51 6 64 40 45
255 269 276 279 289 297 299 309 315 322 331 337 338 338 333 334 291 179 171 175 167 153 137 123 102 119 139 188 102 210 180 202 133 162 168 204 125 201 260 59 59 76 71 51 42
249 255 266 274 280 289 295 302 308 320 323 330 336 342 353 289 260 190 174 175 173 163 165 147 175 150 189 161 171 219 185 209 217 178 236 236 232 155 92 101 100 93 72 54 45
248 253 259 264 274 281 285 293 304 313 320 324 328 337 76 251 206 194 189 176 182 175 155 165 197 161 114 165 234 112 253 263 267 242 213 222 148 182 127 141 99 80 63 52 40
247 251 256 263 266 273 280 288 296 304 311 315 317 320 213 259 207 194 182 193 188 185 163 165 146 197 147 145 95 66 286 285 229 213 217 181 172 159 123 164 114 77 56 41 30
241 249 255 262 264 266 274 281 289 298 303 300 312 147 253 232 204 193 176 151 155 157 143 147 128 100 52 126 96 248 243 256 125 165 135 203 203 155 354 215 175 90 69 51 39
242 248 252 256 258 260 266 280 288 290 285 268 245 196 256 172 194 198 182 154 130 113 98 121 81 88 143 187 226 208 257 222 255 183 168 224 164 154 16 184 161 133 101 73 55
249 246 248 246 247 255 260 273 279 280 248 234 157 243 180 202 164 167 177 154 127 129 108 90 104 182 166 194 235 207 217 227 234 168 215 226 248 164 91 177 151 137 116 98 80
252 245 241 238 239 245 243 261 232 220 216 210 193 228 132 128 135 161 155 124 117 154 187 150 205 215 215 214 233 177 210 238 173 145 229 243 254 199 179 171 168 160 144 128 112
246 241 235 232 231 225 197 223 251 60 288 236 233 272 175 172 131 184 164 175 176 194 135 160 229 228 191 193 197 216 237 243 267 193 233 253 256 238 196 201 199 171 156 145 131
241 236 231 223 216 203 209 215 189 31 263 242 203 209 190 175 202 179 177 157 190 177 195 213 184 188 167 170 200 225 225 233 255 159 231 272 265 221 187 175 165 177 152 151 140
237 233 225 204 187 200 213 231 179 55 269 225 212 227 160 157 224 170 179 156 186 210 182 238 167 154 189 211 200 235 216 223 212 220 257 218 280 207 181 184 190 179 178 166 156
250 235 217 200 164 182 209 200 187 319 273 108 140 104 147 187 123 177 183 160 187 170 179 200 176 189 204 206 187 255 156 201 204 225 259 199 257 193 173 207 195 187 181 173 167
246 254 220 198 199 199 182 156 139 165 240 183 129 159 151 154 107 115 159 59 90 143 262 264 36 196 214 96 185 134 108 78 94 191 248 227 217 203 198 215 183 187 185 177 172
240 241 228 194 195 187 163 135 159 199 146 179 175 175 179 163 160 169 176 183 182 190 223 211 218 172 174 131 111 185 160 194 221 208 245 154 207 250 197 183 191 182 182 178 172
240 239 235 210 195 179 166 168 202 221 213 112 129 139 187 157 193 172 165 194 215 199 145 203 231 188 193 214 187 196 190 191 213 205 183 134 225 233 96 126 158 183 175 172 176
238 247 234 210 191 180 176 198 211 211 191 163 135 174 197 199 185 176 205 217 199 197 199 191 239 187 192 152 172 186 214 177 107 1 233 203 235 237 155 169 166 175 176 180 179
218 225 244 209 193 179 204 204 229 211 156 188 207 194 189 186 181 193 186 192 204 195 198 194 253 213 162 140 109 210 152 182 227 211 234 214 248 222 201 196 183 182 188 185 183
218 207 241 215 187 191 208 221 232 225 198 187 207 213 205 183 201 199 208 181 204 199 192 132 210 145 143 208 189 162 190 206 203 203 225 243 233 212 193 186 186 194 193 187 185
179 217 207 182 200 209 203 201 209 211 219 240 226 218 199 184 199 210 214 219 188 154 180 187 174 200 203 154 269 233 220 193 204 189 239 284 247 162 190 188 188 188 190 189 188
196 209 196 190 228 209 209 214 221 197 202 206 224 221 204 197 221 214 215 179 174 170 170 170 191 193 237 222 191 214 204 215 225 62 203 192 208 169 183 214 198 181 183 186 188
181 204 193 180 251 252 203 209 216 215 217 210 224 210 168 222 220 230 221 191 201 206 179 165 178 206 225 234 160 209 205 204 196 225 209 230 207 199 192 198 193 185 186 188 191
188 228 183 206 225 246 250 196 210 213 215 201 211 222 215 229 227 233 232 164 202 215 205 184 222 219 237 238 203 210 199 196 208 222 210 231 219 195 189 195 196 193 185 183 193
189 183 189 191 222 221 234 217 195 208 169 204 225 216 219 225 217 233 225 210 213 177 188 200 226 224 236 218 217 218 212 207 213 219 234 230 226 189 193 162 179 189 182 192 197
321 10 171 201 215 223 236 232 212 201 208 208 206 227 217 231 241 294 13 116 198 190 195 186 205 194 228 208 218 266 224 205 210 214 217 219 230 150 180 191 196 186 190 197 194